Torna al catalogo

CZ-4C R/B

AttivoLEO
NORAD 54701·ROCKET BODY·🇨🇳 China

Lanciato Dec 12, 2022 da Jiuquan Satellite Launch Center

Loading…

Prossimi Passaggi (prossime 24 ore)

TLE

AggiornatoSource: Space-Track

Epoca: Sep 14, 2026, 16:09 UTC

1 54701U 22169C   26257.67334885  .00000088  00000-0  58772-4 0  9992
2 54701  59.9549 137.0766 0091694 137.6638 223.1532 14.51763500199114

Traccia CZ-4C R/B in tempo reale con AllMySat

Download on the App Store